Regional Weather Roundup
Issued by NWS

Home | Current Version | Previous Version | Text Only | Print | Product List | Glossary Off
Versions: 1 2 3 4 5 6 7 8 9 10 11 12 13 14 15 16 17 18 19 20 21 22 23 24 25 26 27 28 29 30 31 32 33 34 35 36 37 38 39 40 41 42 43 44 45 46 47

000
ASUS45 KCYS 260910
RWRWY

WYOMING REGIONAL WEATHER ROUNDUP
NATIONAL WEATHER SERVICE CHEYENNE WY
200 AM MST FRI DEC 26 2014

NOTE:  "FAIR" INDICATES FEW OR NO CLOUDS BELOW 12,000 FEET
WITH NO SIGNIFICANT WEATHER AND/OR OBSTRUCTIONS TO VISIBILITY.

WYZ001-261000-
YELLOWSTONE NATIONAL PARK

CITY           SKY/WX    TMP DP  RH WIND       PRES   REMARKS
LK YELLOWSTONE   N/A      3  -2  79 CALM      29.81F
W YELLOWSTONE  NOT AVBL

$$
WYZ002>013-054>058-071-098>099-261000-
NORTHERN WYOMING

CITY           SKY/WX    TMP DP  RH WIND       PRES   REMARKS
JACKSON        CLOUDY    10   7  85 N16       29.81S WCI  -7
CODY           CLOUDY    18  16  93 N3        29.92R
GREYBULL       LGT SNOW  19  17  92 SE5       29.97R FOG     WCI  12
WORLAND        LGT SNOW  19  16  88 S5        29.97R FOG     WCI  12
SHERIDAN       CLOUDY    19  15  84 CALM      29.99R
BUFFALO        CLOUDY    17  15  92 N3        29.95R
GILLETTE       CLOUDY    18  15  88 N9        29.96R WCI   7
HULETT           N/A    N/A N/A N/A MISG        N/A
NEWCASTLE      FAIR      18  12  79 N8        29.95R WCI   7

$$
WYZ014>020-022>026-101>103-261000-
CENTRAL WYOMING

CITY           SKY/WX    TMP DP  RH WIND       PRES   REMARKS
BIG PINEY      CLOUDY     7   3  84 CALM      29.78R
PINEDALE       CLOUDY     5   3  92 W7        29.78R WCI  -7
DUBOIS         NOT AVBL
LANDER         LGT SNOW  17  15  92 NW5       29.88S FOG     WCI  10
RIVERTON       LGT SNOW  17  13  84 SE5       29.90S FOG     WCI  10
CASPER         LGT SNOW  11   8  88 N8        29.90R FOG     WCI  -1
DOUGLAS        LGT SNOW  17  14  88 N5        29.93R FOG     WCI  10

$$
WYZ021-027>030-104>119-261000-
SOUTHERN WYOMING

CITY           SKY/WX    TMP DP  RH WIND       PRES   REMARKS
EVANSTON       CLOUDY    15  10  80 NE6       29.77R WCI   6
FORT BRIDGER   LGT SNOW  15  14  95 E10       29.80S WCI   3
ROCK SPRINGS   CLOUDY    13   8  81 NE20      29.77R WCI  -5
DIXON          CLOUDY    21  18  87 W3        29.70R
RAWLINS        LGT SNOW  13   9  84 NE22      29.75S FOG     WCI  -6
SARATOGA       LGT SNOW  16  12  86 CALM      29.71S
LARAMIE        FAIR       5   1  83 SE5       29.75R WCI  -4
CHEYENNE       CLOUDY    13   9  84 N6        29.82R WCI   4
TORRINGTON     LGT SNOW  20  17  88 N6        29.93S FOG     WCI  12
PINE BLUFFS    PTSUNNY   14  12  92 N6        29.89R WCI   5

$$



USA.gov is the U.S. government's official web portal to all federal, state and local government web resources and services.